SKW5433 KSFO-KTUS

Flight info

Callsign SKW5433
Flight time 1h 44m
Altitude 37000
Route WESLA5 KAYEX DCT LOSHN DCT BOILE DCT BLH J65 KOFFA J50 GBN DINGO6
Aircraft E175/M-SDE3GILORVW/S

Departure

Time 2026-04-23 19:32
Airport San Francisco International Airport (KSFO)

Arrival

Time 2026-04-23 21:17
Airport Tucson International Airport (KTUS)
Time Latitude Longitude Altitude Speed Heading
2026-04-23 18:36 37.62059 -122.38647 30 ft 0 kts 297°
2026-04-23 19:21 37.62054 -122.38635 30 ft 2 kts 297°
2026-04-23 19:21 37.62040 -122.38601 30 ft 2 kts 317°
2026-04-23 19:21 37.62026 -122.38593 30 ft 2 kts 357°
2026-04-23 19:22 37.62015 -122.38595 30 ft 0 kts 24°
2026-04-23 19:22 37.62017 -122.38595 30 ft 2 kts 22°
2026-04-23 19:22 37.62024 -122.38591 30 ft 0 kts 27°
2026-04-23 19:23 37.62024 -122.38590 30 ft 0 kts 27°
2026-04-23 19:25 37.62027 -122.38589 30 ft 1 kts 27°
2026-04-23 19:26 37.62069 -122.38561 30 ft 4 kts 27°
2026-04-23 19:26 37.62094 -122.38524 30 ft 7 kts 85°
2026-04-23 19:27 37.62035 -122.38366 30 ft 12 kts 117°
2026-04-23 19:27 37.61875 -122.37981 29 ft 19 kts 117°
2026-04-23 19:28 37.61789 -122.37733 24 ft 10 kts 111°
2026-04-23 19:28 37.61701 -122.37476 17 ft 21 kts 117°
2026-04-23 19:29 37.61629 -122.37296 13 ft 24 kts 118°
2026-04-23 19:29 37.61470 -122.36929 10 ft 20 kts 127°
2026-04-23 19:30 37.61299 -122.36620 10 ft 22 kts 118°
2026-04-23 19:30 37.61224 -122.36443 8 ft 23 kts 117°
2026-04-23 19:30 37.61077 -122.36094 7 ft 17 kts 118°
2026-04-23 19:31 37.61056 -122.35960 7 ft 16 kts 64°
2026-04-23 19:31 37.61129 -122.35886 7 ft 12 kts 28°
2026-04-23 19:31 37.61188 -122.35870 7 ft 8 kts 310°
2026-04-23 19:31 37.61205 -122.35908 7 ft 0 kts 297°
2026-04-23 19:32 37.61220 -122.35946 7 ft 28 kts 297°
2026-04-23 19:32 37.61449 -122.36494 10 ft 109 kts 298°
2026-04-23 19:32 37.61905 -122.37588 139 ft 159 kts 297°
2026-04-23 19:32 37.62405 -122.38808 877 ft 162 kts 299°
2026-04-23 19:33 37.62955 -122.40086 1514 ft 177 kts 300°
2026-04-23 19:33 37.63550 -122.41530 2121 ft 193 kts 298°
2026-04-23 19:33 37.64923 -122.44697 3336 ft 226 kts 292°
2026-04-23 19:34 37.65097 -122.46711 3972 ft 244 kts 260°
2026-04-23 19:34 37.64381 -122.48690 4502 ft 266 kts 232°
2026-04-23 19:34 37.61039 -122.50545 6205 ft 279 kts 178°
2026-04-23 19:35 37.59112 -122.50318 6985 ft 286 kts 173°
2026-04-23 19:35 37.57135 -122.49911 7876 ft 288 kts 168°
2026-04-23 19:35 37.55191 -122.49275 8673 ft 292 kts 163°
2026-04-23 19:35 37.53250 -122.48541 9336 ft 301 kts 165°
2026-04-23 19:36 37.51178 -122.47967 10060 ft 306 kts 170°
2026-04-23 19:36 37.49181 -122.47061 10775 ft 309 kts 143°
2026-04-23 19:36 37.47631 -122.45185 11410 ft 313 kts 129°
2026-04-23 19:36 37.46201 -122.43068 11985 ft 322 kts 128°
2026-04-23 19:37 37.44771 -122.40887 12531 ft 331 kts 128°
2026-04-23 19:37 37.43303 -122.38623 13169 ft 336 kts 128°
2026-04-23 19:37 37.41827 -122.36339 13855 ft 338 kts 128°
2026-04-23 19:37 37.40365 -122.34070 14557 ft 340 kts 128°
2026-04-23 19:38 37.38864 -122.31741 15223 ft 343 kts 128°
2026-04-23 19:38 37.37358 -122.29406 15848 ft 347 kts 128°
2026-04-23 19:38 37.35839 -122.27052 16475 ft 351 kts 128°
2026-04-23 19:38 37.34290 -122.24654 17094 ft 354 kts 128°
2026-04-23 19:39 37.32726 -122.22234 17717 ft 357 kts 128°
2026-04-23 19:39 37.31165 -122.19820 18311 ft 361 kts 128°
2026-04-23 19:39 37.29570 -122.17355 18856 ft 365 kts 128°
2026-04-23 19:39 37.27976 -122.14893 19359 ft 371 kts 128°
2026-04-23 19:40 37.26326 -122.12347 19854 ft 377 kts 128°
2026-04-23 19:40 37.24674 -122.09801 20377 ft 381 kts 129°
2026-04-23 19:40 37.22989 -122.07204 20884 ft 386 kts 129°
2026-04-23 19:40 37.21302 -122.04608 21357 ft 390 kts 129°
2026-04-23 19:41 37.19568 -122.01941 21842 ft 395 kts 129°
2026-04-23 19:41 37.17845 -121.99292 22310 ft 399 kts 130°
2026-04-23 19:41 37.16077 -121.96577 22763 ft 404 kts 130°
2026-04-23 19:41 37.14284 -121.93826 23219 ft 408 kts 130°
2026-04-23 19:42 37.12477 -121.91057 23655 ft 413 kts 130°
2026-04-23 19:42 37.10677 -121.88300 24106 ft 417 kts 130°
2026-04-23 19:42 37.08833 -121.85477 24562 ft 420 kts 131°
2026-04-23 19:42 37.06970 -121.82628 24991 ft 424 kts 131°
2026-04-23 19:43 37.05090 -121.79755 25423 ft 428 kts 131°
2026-04-23 19:43 37.03227 -121.76910 25852 ft 431 kts 131°
2026-04-23 19:43 37.01304 -121.73978 26295 ft 433 kts 131°
2026-04-23 19:43 36.99401 -121.71079 26683 ft 437 kts 131°
2026-04-23 19:44 36.97466 -121.68132 27076 ft 441 kts 132°
2026-04-23 19:44 36.95522 -121.65175 27477 ft 444 kts 132°
2026-04-23 19:44 36.93549 -121.62176 27855 ft 447 kts 132°
2026-04-23 19:44 36.91589 -121.59199 28231 ft 450 kts 132°
2026-04-23 19:45 36.89584 -121.56158 28601 ft 453 kts 132°
2026-04-23 19:45 36.87600 -121.53150 28984 ft 456 kts 132°
2026-04-23 19:45 36.85574 -121.50082 29330 ft 459 kts 132°
2026-04-23 19:45 36.83546 -121.47015 29684 ft 462 kts 132°
2026-04-23 19:46 36.81506 -121.43931 30057 ft 464 kts 133°
2026-04-23 19:46 36.79440 -121.40809 30446 ft 466 kts 133°
2026-04-23 19:46 36.77388 -121.37713 30832 ft 467 kts 133°
2026-04-23 19:46 36.75318 -121.34594 31167 ft 470 kts 134°
2026-04-23 19:47 36.73925 -121.32496 31364 ft 472 kts 134°
2026-04-23 19:47 36.71114 -121.28266 31757 ft 476 kts 134°
2026-04-23 19:47 36.69020 -121.25118 32047 ft 478 kts 134°
2026-04-23 19:47 36.66893 -121.21923 32440 ft 478 kts 135°
2026-04-23 19:48 36.64759 -121.18721 32858 ft 478 kts 135°
2026-04-23 19:48 36.62648 -121.15556 33293 ft 476 kts 135°
2026-04-23 19:48 36.60513 -121.12360 33713 ft 475 kts 135°
2026-04-23 19:48 36.58375 -121.09161 34137 ft 474 kts 135°
2026-04-23 19:49 36.56264 -121.06006 34524 ft 473 kts 136°
2026-04-23 19:49 36.54160 -121.02864 34877 ft 472 kts 136°
2026-04-23 19:49 36.52050 -120.99716 35253 ft 471 kts 136°
2026-04-23 19:49 36.49919 -120.96542 35583 ft 471 kts 136°
2026-04-23 19:50 36.47852 -120.93455 35900 ft 471 kts 136°
2026-04-23 19:50 36.45766 -120.90323 36252 ft 470 kts 136°
2026-04-23 19:50 36.43685 -120.87203 36642 ft 470 kts 136°
2026-04-23 19:50 36.41604 -120.84086 37059 ft 466 kts 136°
2026-04-23 19:51 36.39529 -120.80983 37082 ft 468 kts 136°
2026-04-23 19:51 36.35326 -120.74707 37103 ft 482 kts 136°
2026-04-23 19:52 36.31707 -120.69308 37100 ft 494 kts 136°
2026-04-23 19:52 36.26579 -120.61674 37329 ft 497 kts 136°
2026-04-23 19:52 36.24382 -120.58408 37096 ft 492 kts 136°
2026-04-23 19:53 36.22198 -120.55166 37092 ft 492 kts 136°
2026-04-23 19:53 36.17814 -120.48666 37095 ft 493 kts 136°
2026-04-23 19:54 36.13409 -120.42149 37095 ft 493 kts 136°
2026-04-23 19:54 36.09033 -120.35686 37095 ft 493 kts 136°
2026-04-23 19:55 36.04625 -120.29188 37081 ft 493 kts 136°
2026-04-23 19:55 36.00246 -120.22745 37082 ft 492 kts 136°
2026-04-23 19:56 35.95837 -120.16270 37082 ft 492 kts 136°
2026-04-23 19:56 35.91459 -120.09853 37080 ft 492 kts 136°
2026-04-23 19:57 35.87062 -120.03423 37083 ft 491 kts 136°
2026-04-23 19:57 35.83390 -119.98100 37081 ft 492 kts 137°
2026-04-23 19:58 35.78186 -119.90694 37078 ft 489 kts 137°
2026-04-23 19:58 35.73738 -119.84373 37079 ft 490 kts 137°
2026-04-23 19:59 35.69256 -119.78016 37080 ft 489 kts 137°
2026-04-23 19:59 35.64794 -119.71700 37078 ft 490 kts 137°
2026-04-23 20:00 35.60331 -119.65392 37080 ft 491 kts 137°
2026-04-23 20:00 35.55863 -119.59091 37078 ft 490 kts 137°
2026-04-23 20:01 35.51384 -119.52783 37081 ft 488 kts 137°
2026-04-23 20:01 35.46885 -119.46461 37083 ft 489 kts 137°
2026-04-23 20:02 35.42399 -119.40168 37089 ft 488 kts 136°
2026-04-23 20:02 35.37869 -119.33826 37086 ft 488 kts 137°
2026-04-23 20:03 35.33407 -119.27590 37083 ft 487 kts 137°
2026-04-23 20:03 35.28896 -119.21298 37082 ft 488 kts 137°
2026-04-23 20:04 35.24394 -119.15028 37085 ft 486 kts 137°
2026-04-23 20:04 35.19837 -119.08695 37086 ft 486 kts 137°
2026-04-23 20:05 35.16132 -119.03555 37089 ft 487 kts 137°
2026-04-23 20:05 35.10907 -118.96317 37089 ft 486 kts 137°
2026-04-23 20:06 35.06380 -118.90059 37086 ft 486 kts 137°
2026-04-23 20:06 35.01865 -118.83830 37083 ft 486 kts 137°
2026-04-23 20:07 34.97369 -118.77637 37079 ft 486 kts 136°
2026-04-23 20:07 34.92852 -118.71427 37084 ft 486 kts 136°
2026-04-23 20:08 34.88347 -118.65243 37089 ft 488 kts 137°
2026-04-23 20:08 34.83854 -118.59088 37089 ft 487 kts 136°
2026-04-23 20:09 34.79292 -118.52849 37094 ft 486 kts 136°
2026-04-23 20:09 34.74760 -118.46664 37099 ft 487 kts 136°
2026-04-23 20:10 34.71006 -118.41548 37117 ft 487 kts 136°
2026-04-23 20:10 34.65739 -118.34383 37114 ft 486 kts 137°
2026-04-23 20:11 34.61196 -118.28214 37093 ft 486 kts 137°
2026-04-23 20:11 34.56692 -118.22109 37093 ft 486 kts 137°
2026-04-23 20:12 34.52177 -118.16000 37100 ft 486 kts 137°
2026-04-23 20:12 34.47568 -118.09776 37101 ft 487 kts 137°
2026-04-23 20:13 34.43216 -118.03373 37086 ft 494 kts 126°
2026-04-23 20:13 34.40364 -117.95766 37087 ft 502 kts 108°
2026-04-23 20:14 34.38644 -117.87589 37059 ft 502 kts 108°
2026-04-23 20:14 34.36716 -117.79441 37061 ft 502 kts 109°
2026-04-23 20:15 34.34748 -117.71241 37061 ft 502 kts 109°
2026-04-23 20:15 34.32786 -117.63098 37062 ft 501 kts 108°
2026-04-23 20:16 34.30822 -117.54967 37073 ft 502 kts 109°
2026-04-23 20:16 34.28852 -117.46842 37069 ft 502 kts 108°
2026-04-23 20:17 34.26881 -117.38741 37079 ft 502 kts 108°
2026-04-23 20:17 34.24898 -117.30611 37078 ft 501 kts 109°
2026-04-23 20:18 34.22920 -117.22528 37079 ft 501 kts 109°
2026-04-23 20:18 34.20925 -117.14404 37090 ft 502 kts 109°
2026-04-23 20:19 34.18940 -117.06345 37094 ft 501 kts 109°
2026-04-23 20:19 34.16944 -116.98265 37091 ft 500 kts 109°
2026-04-23 20:20 34.14940 -116.90180 37098 ft 503 kts 109°
2026-04-23 20:20 34.12922 -116.82061 37089 ft 503 kts 109°
2026-04-23 20:21 34.10889 -116.73915 37099 ft 504 kts 109°
2026-04-23 20:21 34.08855 -116.65780 37087 ft 503 kts 109°
2026-04-23 20:22 34.06831 -116.57714 37065 ft 503 kts 110°
2026-04-23 20:22 34.04801 -116.49652 37064 ft 503 kts 110°
2026-04-23 20:23 34.02756 -116.41552 37068 ft 504 kts 109°
2026-04-23 20:23 34.00709 -116.33472 37080 ft 502 kts 110°
2026-04-23 20:24 33.98654 -116.25379 37085 ft 501 kts 110°
2026-04-23 20:24 33.96589 -116.17277 37086 ft 507 kts 110°
2026-04-23 20:25 33.94521 -116.09189 37072 ft 505 kts 110°
2026-04-23 20:25 33.92431 -116.01038 37065 ft 507 kts 110°
2026-04-23 20:26 33.90355 -115.92967 37065 ft 506 kts 110°
2026-04-23 20:26 33.88263 -115.84854 37056 ft 507 kts 111°
2026-04-23 20:27 33.86164 -115.76742 37058 ft 507 kts 111°
2026-04-23 20:27 33.84062 -115.68642 37045 ft 507 kts 111°
2026-04-23 20:28 33.81958 -115.60560 37043 ft 507 kts 111°
2026-04-23 20:28 33.79853 -115.52496 37019 ft 507 kts 111°
2026-04-23 20:29 33.77726 -115.44373 37003 ft 510 kts 111°
2026-04-23 20:29 33.75603 -115.36289 36991 ft 508 kts 111°
2026-04-23 20:30 33.73466 -115.28175 36963 ft 508 kts 112°
2026-04-23 20:30 33.70258 -115.16045 36947 ft 509 kts 112°
2026-04-23 20:31 33.68111 -115.07958 36945 ft 511 kts 112°
2026-04-23 20:31 33.65950 -114.99837 36944 ft 509 kts 112°
2026-04-23 20:32 33.63797 -114.91773 36937 ft 509 kts 112°
2026-04-23 20:32 33.61620 -114.83642 36941 ft 513 kts 112°
2026-04-23 20:33 33.59566 -114.75399 36941 ft 515 kts 104°
2026-04-23 20:33 33.58763 -114.66774 36947 ft 520 kts 99°
2026-04-23 20:34 33.58002 -114.58070 36936 ft 521 kts 99°
2026-04-23 20:34 33.57229 -114.49455 36941 ft 522 kts 99°
2026-04-23 20:35 33.56436 -114.40700 36946 ft 523 kts 99°
2026-04-23 20:35 33.55649 -114.32070 36938 ft 523 kts 100°
2026-04-23 20:36 33.54850 -114.23387 36942 ft 524 kts 100°
2026-04-23 20:36 33.54039 -114.14635 36950 ft 525 kts 99°
2026-04-23 20:37 33.53233 -114.06006 36955 ft 526 kts 100°
2026-04-23 20:37 33.52414 -113.97296 36958 ft 524 kts 100°
2026-04-23 20:38 33.51580 -113.88507 36948 ft 527 kts 100°
2026-04-23 20:38 33.50733 -113.79642 36951 ft 526 kts 100°
2026-04-23 20:39 33.49886 -113.70856 36950 ft 528 kts 100°
2026-04-23 20:39 33.49038 -113.62101 36947 ft 529 kts 100°
2026-04-23 20:40 33.48180 -113.53327 36951 ft 527 kts 100°
2026-04-23 20:40 33.47322 -113.44618 36944 ft 528 kts 100°
2026-04-23 20:41 33.45435 -113.36131 36954 ft 517 kts 120°
2026-04-23 20:41 33.41955 -113.28703 36930 ft 496 kts 136°
2026-04-23 20:42 33.37264 -113.22633 36930 ft 494 kts 142°
2026-04-23 20:42 33.32663 -113.16562 36924 ft 497 kts 141°
2026-04-23 20:43 33.28075 -113.10441 36920 ft 492 kts 141°
2026-04-23 20:43 33.23459 -113.04318 36918 ft 496 kts 141°
2026-04-23 20:44 33.18827 -112.98217 36913 ft 497 kts 142°
2026-04-23 20:44 33.14181 -112.92139 36910 ft 496 kts 142°
2026-04-23 20:45 33.09518 -112.86077 36904 ft 493 kts 142°
2026-04-23 20:45 33.04843 -112.80043 36904 ft 495 kts 142°
2026-04-23 20:46 33.00109 -112.73968 36906 ft 495 kts 142°
2026-04-23 20:46 32.95344 -112.67902 36917 ft 496 kts 142°
2026-04-23 20:47 32.90566 -112.61876 36915 ft 503 kts 143°
2026-04-23 20:47 32.85767 -112.55857 36948 ft 494 kts 143°
2026-04-23 20:48 32.81036 -112.49936 36962 ft 498 kts 142°
2026-04-23 20:48 32.78840 -112.46668 36975 ft 510 kts 132°
2026-04-23 20:48 32.77073 -112.43055 36876 ft 503 kts 123°
2026-04-23 20:49 32.75809 -112.39236 36689 ft 495 kts 112°
2026-04-23 20:49 32.75031 -112.35242 36076 ft 502 kts 103°
2026-04-23 20:49 32.74752 -112.30975 35523 ft 527 kts 92°
2026-04-23 20:49 32.74988 -112.26540 34898 ft 540 kts 83°
2026-04-23 20:50 32.75735 -112.22220 34313 ft 538 kts 73°
2026-04-23 20:50 32.76984 -112.18042 33727 ft 532 kts 64°
2026-04-23 20:50 32.78471 -112.14007 33162 ft 532 kts 64°
2026-04-23 20:50 32.79950 -112.10006 32558 ft 530 kts 64°
2026-04-23 20:51 32.81434 -112.05981 31970 ft 530 kts 64°
2026-04-23 20:51 32.82896 -112.01996 31392 ft 525 kts 66°
2026-04-23 20:51 32.84027 -111.97906 30828 ft 520 kts 76°
2026-04-23 20:51 32.84621 -111.93750 30327 ft 505 kts 86°
2026-04-23 20:52 32.84684 -111.89650 30076 ft 483 kts 92°
2026-04-23 20:52 32.84893 -111.85796 30051 ft 461 kts 82°
2026-04-23 20:52 32.85604 -111.82160 30016 ft 446 kts 72°
2026-04-23 20:52 32.86402 -111.78564 28758 ft 465 kts 83°
2026-04-23 20:53 32.86180 -111.74824 28276 ft 444 kts 109°
2026-04-23 20:53 32.85045 -111.71562 27785 ft 421 kts 129°
2026-04-23 20:53 32.83144 -111.69105 27432 ft 389 kts 152°
2026-04-23 20:53 32.80940 -111.67311 27017 ft 383 kts 155°
2026-04-23 20:54 32.78742 -111.65559 26608 ft 383 kts 154°
2026-04-23 20:54 32.76530 -111.63798 26198 ft 381 kts 154°
2026-04-23 20:54 32.74357 -111.62067 25824 ft 377 kts 154°
2026-04-23 20:54 32.72192 -111.60343 25277 ft 372 kts 154°
2026-04-23 20:55 32.70050 -111.58640 24650 ft 370 kts 154°
2026-04-23 20:55 32.67937 -111.56963 23947 ft 370 kts 153°
2026-04-23 20:55 32.65807 -111.55273 23289 ft 369 kts 153°
2026-04-23 20:55 32.63667 -111.53576 22679 ft 366 kts 153°
2026-04-23 20:56 32.61572 -111.51915 22097 ft 362 kts 152°
2026-04-23 20:56 32.59509 -111.50281 21540 ft 358 kts 152°
2026-04-23 20:56 32.57410 -111.48728 20949 ft 350 kts 160°
2026-04-23 20:56 32.55258 -111.47473 20379 ft 346 kts 160°
2026-04-23 20:57 32.53098 -111.46222 19803 ft 343 kts 160°
2026-04-23 20:57 32.50960 -111.44985 19237 ft 340 kts 160°
2026-04-23 20:57 32.48859 -111.43771 18667 ft 338 kts 160°
2026-04-23 20:57 32.46746 -111.42550 18104 ft 336 kts 160°
2026-04-23 20:58 32.44673 -111.41354 17543 ft 334 kts 160°
2026-04-23 20:58 32.42587 -111.40151 16985 ft 332 kts 159°
2026-04-23 20:58 32.40530 -111.38963 16494 ft 329 kts 160°
2026-04-23 20:58 32.38492 -111.37789 16018 ft 324 kts 159°
2026-04-23 20:59 32.36483 -111.36631 15525 ft 320 kts 160°
2026-04-23 20:59 32.34500 -111.35490 15005 ft 317 kts 160°
2026-04-23 20:59 32.32514 -111.34348 14477 ft 314 kts 160°
2026-04-23 20:59 32.30559 -111.33225 13952 ft 312 kts 160°
2026-04-23 21:00 32.28618 -111.32111 13445 ft 309 kts 160°
2026-04-23 21:00 32.26716 -111.31018 12960 ft 305 kts 160°
2026-04-23 21:00 32.24812 -111.29927 12462 ft 302 kts 160°
2026-04-23 21:00 32.22926 -111.28845 12131 ft 293 kts 159°
2026-04-23 21:01 32.21147 -111.27824 11943 ft 280 kts 160°
2026-04-23 21:01 32.19424 -111.26836 11657 ft 272 kts 159°
2026-04-23 21:01 32.17728 -111.25845 11290 ft 270 kts 155°
2026-04-23 21:01 32.16204 -111.24510 10854 ft 275 kts 140°
2026-04-23 21:02 32.15329 -111.23451 10584 ft 275 kts 135°
2026-04-23 21:02 32.13724 -111.21129 10037 ft 274 kts 129°
2026-04-23 21:02 32.12607 -111.19326 9643 ft 272 kts 128°
2026-04-23 21:02 32.11514 -111.17490 9259 ft 270 kts 127°
2026-04-23 21:03 32.10463 -111.15689 8883 ft 268 kts 127°
2026-04-23 21:03 32.09409 -111.13874 8510 ft 265 kts 129°
2026-04-23 21:03 32.08139 -111.12377 8114 ft 262 kts 142°
2026-04-23 21:03 32.06761 -111.10983 8023 ft 260 kts 142°
2026-04-23 21:04 32.05384 -111.09592 8004 ft 260 kts 142°
2026-04-23 21:04 32.04001 -111.08196 8000 ft 260 kts 142°
2026-04-23 21:04 32.02639 -111.06821 7992 ft 254 kts 142°
2026-04-23 21:04 32.01332 -111.05503 7977 ft 238 kts 142°
2026-04-23 21:05 32.00078 -111.04240 7996 ft 236 kts 142°
2026-04-23 21:05 31.98849 -111.03002 8046 ft 235 kts 142°
2026-04-23 21:05 31.97620 -111.01765 7991 ft 224 kts 142°
2026-04-23 21:05 31.96470 -111.00606 7981 ft 212 kts 143°
2026-04-23 21:06 31.95356 -110.99487 8038 ft 211 kts 143°
2026-04-23 21:06 31.94246 -110.98371 8010 ft 213 kts 143°
2026-04-23 21:06 31.93115 -110.97203 8008 ft 214 kts 139°
2026-04-23 21:06 31.92096 -110.96009 7986 ft 200 kts 138°
2026-04-23 21:07 31.91126 -110.94871 7822 ft 191 kts 138°
2026-04-23 21:07 31.90232 -110.93823 7660 ft 180 kts 138°
2026-04-23 21:07 31.89344 -110.92783 7392 ft 177 kts 139°
2026-04-23 21:07 31.88485 -110.91777 7134 ft 174 kts 138°
2026-04-23 21:08 31.87635 -110.90783 6878 ft 172 kts 138°
2026-04-23 21:08 31.86962 -110.89638 6599 ft 174 kts 105°
2026-04-23 21:08 31.87066 -110.88267 6348 ft 168 kts 60°
2026-04-23 21:08 31.87789 -110.87266 6217 ft 153 kts 41°
2026-04-23 21:09 31.88523 -110.86410 6189 ft 147 kts 41°
2026-04-23 21:09 31.89260 -110.85549 6216 ft 150 kts 41°
2026-04-23 21:09 31.90003 -110.84681 6217 ft 153 kts 41°
2026-04-23 21:09 31.90757 -110.83796 6219 ft 152 kts 41°
2026-04-23 21:10 31.91510 -110.82912 6210 ft 153 kts 41°
2026-04-23 21:10 31.92274 -110.82015 6221 ft 154 kts 41°
2026-04-23 21:10 31.93046 -110.81107 6218 ft 157 kts 41°
2026-04-23 21:10 31.93819 -110.80199 6217 ft 156 kts 42°
2026-04-23 21:11 31.94585 -110.79296 6211 ft 157 kts 41°
2026-04-23 21:11 31.95358 -110.78386 6208 ft 156 kts 41°
2026-04-23 21:11 31.96172 -110.77559 6193 ft 152 kts 19°
2026-04-23 21:11 31.97157 -110.77474 6211 ft 140 kts 334°
2026-04-23 21:12 31.97936 -110.78122 6227 ft 132 kts 314°
2026-04-23 21:12 31.98593 -110.78827 5976 ft 126 kts 313°
2026-04-23 21:12 31.99231 -110.79532 5640 ft 129 kts 313°
2026-04-23 21:12 31.99912 -110.80297 5629 ft 137 kts 313°
2026-04-23 21:13 32.00611 -110.81090 5400 ft 139 kts 313°
2026-04-23 21:13 32.01291 -110.81870 5190 ft 134 kts 312°
2026-04-23 21:13 32.01961 -110.82642 5001 ft 132 kts 312°
2026-04-23 21:13 32.02617 -110.83401 4838 ft 132 kts 312°
2026-04-23 21:14 32.03282 -110.84175 4671 ft 134 kts 312°
2026-04-23 21:14 32.03937 -110.84938 4499 ft 134 kts 311°
2026-04-23 21:14 32.04603 -110.85716 4303 ft 134 kts 312°
2026-04-23 21:14 32.05265 -110.86489 4109 ft 133 kts 312°
2026-04-23 21:15 32.05919 -110.87254 3918 ft 132 kts 312°
2026-04-23 21:15 32.06571 -110.88018 3733 ft 134 kts 312°
2026-04-23 21:15 32.07228 -110.88797 3540 ft 133 kts 312°
2026-04-23 21:15 32.07880 -110.89564 3352 ft 133 kts 313°
2026-04-23 21:16 32.08539 -110.90334 3159 ft 133 kts 312°
2026-04-23 21:16 32.09189 -110.91094 2966 ft 132 kts 312°
2026-04-23 21:16 32.09840 -110.91867 2782 ft 132 kts 312°
2026-04-23 21:16 32.10490 -110.92624 2642 ft 125 kts 313°
2026-04-23 21:17 32.10994 -110.93217 2626 ft 78 kts 315°
2026-04-23 21:17 32.11264 -110.93535 2618 ft 38 kts 314°
2026-04-23 21:17 32.11402 -110.93695 2614 ft 13 kts 319°
2026-04-23 21:17 32.11446 -110.93689 2614 ft 6 kts 45°
2026-04-23 21:18 32.11478 -110.93651 2614 ft 6 kts 44°
2026-04-23 21:18 32.11509 -110.93616 2615 ft 6 kts 39°
2026-04-23 21:18 32.11553 -110.93627 2614 ft 8 kts 317°
2026-04-23 21:18 32.11602 -110.93686 2612 ft 11 kts 315°
2026-04-23 21:19 32.11669 -110.93765 2609 ft 15 kts 314°
2026-04-23 21:19 32.11730 -110.93823 2606 ft 8 kts 360°
2026-04-23 21:19 32.11763 -110.93797 2606 ft 5 kts 46°
2026-04-23 21:19 32.11775 -110.93758 2607 ft 5 kts 108°
2026-04-23 21:20 32.11747 -110.93719 2608 ft 6 kts 124°
2026-04-23 21:20 32.11756 -110.93660 2609 ft 9 kts 49°
2026-04-23 21:20 32.11811 -110.93595 2608 ft 11 kts 45°
2026-04-23 21:20 32.11860 -110.93543 2607 ft 8 kts 21°
2026-04-23 21:21 32.11911 -110.93565 2606 ft 7 kts 315°
2026-04-23 21:21 32.11936 -110.93597 2606 ft 5 kts 303°
2026-04-23 21:21 32.11939 -110.93645 2606 ft 5 kts 257°
2026-04-23 21:21 32.11933 -110.93670 2606 ft 1 kts 254°
2026-04-23 21:22 32.11933 -110.93671 2606 ft 0 kts 255°